SL-16 DEB, 22293

Orbit data source: Space-Track

SL-16 DEB, 22293 is space debris in LEO originally from a launch on Fri, 25 Dec 1992 UTC launched from the Tyuratam Missile And Space Complex (TTMTR). Debris objects in space refer to the collection of defunct objects orbiting the Earth. Examples of debris include non-operational satellites, rocket bodies, and fragments generated from explosions, collisions, or faulty payload assembly.

Loading next visibility...
Identifier
22293, 1992-093H
Orbit
LEO
Country
Flag of CISCIS
Related business
Manufacturer
Yuzhnoe
Mission
Spacecraft
Bus & Motor
SEP MOTOR COVER, Unknown motor
Mass
~0 kg wet, ~1 kg dry
Launch date (UTC)
1992-12-25 (33 years ago)
Launch vehicle
Unknown
Launch site
Tyuratam Missile And Space Complex (TTMTR)
Object type
Payload
Rocket body
Debris
Shape & HBR
Unknown shape, 0.2 m
Radar Cross Section
Small (<0.1 m²)

Expand to show TLE details & history
Last TLE update: 10 hours ago

TLE from 10 hours ago
0 SL-16 DEB
1 22293U 92093H   26132.79883352  .00000041  00000-0  77726-4 0  9998
2 22293  71.0534 159.7664 0198236 303.2683  54.9560 13.74704843667742
Epoch: 2026-05-12T19:10Z
TLE epoch observation values (Epoch: 2026-05-12T19:10:19.216Z)
Latitude
-0.00009°
Longitude
1.61827°
Altitude
903.262 km
Speed
7.442 km/s
True Right ascension
10h 39m 03s
True Declination
0° 00' 00"
Sunlit
Object was in daylight at epoch
Visualization orbit readout
Latitude
Unknown
Longitude
Unknown
Altitude
Unknown
Speed
Unknown
Apparent Right ascension
Unknown
Apparent Declination
Unknown
Sunlit
N/A
Visualization observer readout
Local Sidereal Time
14:02:53
Azimuth
Unknown
Elevation
Unknown
Doppler factor
Unknown
Orbital elements
Apogee altitude
1,126.565 km
Perigee altitude
834.808 km
Semi-major axis
7,358.824 km
Eccentricity
0.01982
Inclination
71.0534°
RAAN
159.7664°
Arg. of periapsis
303.2683°
True anomaly
56.84229°
Mean anomaly
54.956°
Eccentric anomaly
55.89648°
Mean motion
3.4382 °/min
Orbital period
104.71 mins
BSTAR
0.000077726
Loading maneuver chart data...
Computing Atmospheric mass density...

Documentation

Showing up to 5 results
|